Weather History for Triuchirapalli, India

Change the Weather History Date:

Friday, August 2, 2013

  Actual Average Record
Temperature  
Mean Temperature 90 °F -  
Max Temperature 99 °F 92 °F 101 °F (2012)
Min Temperature 82 °F 79 °F 76 °F (2014)
Cooling Degree Days 26    
Growing Degree Days 40 (Base 50)    
Moisture  
Dew Point 67 °F    
Average Humidity 47    
Maximum Humidity 62    
Minimum Humidity 25    
Precipitation  
Precipitation 0.00 in - - ()
Sea Level Pressure  
Sea Level Pressure 29.69 in    
Wind  
Wind Speed 15 mph ()    
Max Wind Speed 24 mph    
Max Gust Speed 34 mph    
Visibility 3.3 miles    
Events      
Averages and records for this station are not official NWS values.
T = Trace of Precipitation, MM = Missing Value Source: Averaged Metar Reports

Daily Weather History Graph

Daily Weather History Graph

Search for Another Location

Airport:

Trip Planner

Search our weather history database for the weather conditions in past years. The results will help you decide how hot, cold, wet, or windy it might be!

Date:

Astronomy

Aug. 02, 2013 Rise Set
Actual Time 6:03 AM IST 6:38 PM IST
Civil Twilight 5:41 AM IST 7:01 PM IST
Nautical Twilight 5:15 AM IST 7:27 PM IST
Astronomical Twilight 4:49 AM IST 7:53 PM IST
Moon 2:10 AM IST (8/2) 3:06 PM IST (8/2)
Length of Visible Light 13h 19m
Length of Day
12h 34m
Waning Crescent, 19% of the Moon is Illuminated
Aug 2
Waning Crescent
Aug 7
New
Aug 14
First Quarter
Aug 21
Full
Aug 28
Last Quarter

Hourly Weather History & Observations

Time (IST) Temp. Heat Index Dew Point Humidity Pressure Visibility Wind Dir Wind Speed Gust Speed Precip Events Conditions
12:10 AM 84.2 °F 87.3 °F 68.0 °F 58% 29.71 in 3.1 mi West 17.3 mph 28.8 mph N/A   Haze
12:40 AM 84.2 °F 87.3 °F 68.0 °F 58% 29.71 in 3.1 mi West 13.8 mph 25.3 mph N/A   Haze
1:10 AM 84.2 °F 88.4 °F 69.8 °F 62% 29.71 in 3.1 mi WNW 9.2 mph - N/A   Haze
1:40 AM 84.2 °F 87.3 °F 68.0 °F 58% 29.68 in 3.1 mi West 11.5 mph - N/A   Haze
2:10 AM 84.2 °F 87.3 °F 68.0 °F 58% 29.68 in 3.1 mi West 13.8 mph - N/A   Haze
2:30 AM 85 °F - 67 °F 46% 29.68 in 2 mi WNW 13.8 mph - -   Haze
2:40 AM 84.2 °F 87.3 °F 68.0 °F 58% 29.68 in 3.1 mi West 17.3 mph 28.8 mph N/A   Haze
3:10 AM 86.0 °F 89.4 °F 68.0 °F 55% 29.68 in 3.1 mi West 12.7 mph 24.2 mph N/A   Haze
3:40 AM 86.0 °F 89.4 °F 68.0 °F 55% 29.68 in 3.1 mi West 17.3 mph 28.8 mph N/A   Haze
4:10 AM 86.0 °F 89.4 °F 68.0 °F 55% 29.68 in 3.1 mi WNW 17.3 mph 28.8 mph N/A   Haze
4:40 AM 84.2 °F 87.3 °F 68.0 °F 58% 29.68 in 3.1 mi WNW 16.1 mph 27.6 mph N/A   Haze
5:10 AM 84.2 °F 87.3 °F 68.0 °F 58% 29.68 in 3.1 mi WNW 16.1 mph 27.6 mph N/A   Haze
5:40 AM 84.2 °F 87.3 °F 68.0 °F 58% 29.68 in 3.1 mi West 11.5 mph 23.0 mph N/A   Haze
6:10 AM 84.2 °F 87.3 °F 68.0 °F 58% 29.68 in 3.1 mi West 17.3 mph 28.8 mph N/A   Haze
6:40 AM 84.2 °F 87.3 °F 68.0 °F 58% 29.71 in 3.1 mi West 17.3 mph 28.8 mph N/A   Haze
7:10 AM 86.0 °F 90.4 °F 69.8 °F 58% 29.71 in 3.1 mi WNW 17.3 mph 28.8 mph N/A   Haze
7:40 AM 86.0 °F 89.4 °F 68.0 °F 55% 29.71 in 3.1 mi West 16.1 mph 27.6 mph N/A   Haze
8:10 AM 86.0 °F 89.4 °F 68.0 °F 55% 29.74 in 3.1 mi West 17.3 mph 28.8 mph N/A   Haze
8:30 AM 86 °F - 68 °F 45% 29.72 in 2 mi WSW 13.8 mph - -   Haze
8:40 AM 86.0 °F 89.4 °F 68.0 °F 55% 29.74 in 3.1 mi West 17.3 mph 28.8 mph N/A   Haze
9:40 AM 89.6 °F 93.4 °F 68.0 °F 49% 29.74 in 3.7 mi West 13.8 mph 25.3 mph N/A   Mostly Cloudy
10:10 AM 91.4 °F 95.4 °F 68.0 °F 46% 29.74 in 3.7 mi West 17.3 mph 28.8 mph N/A   Mostly Cloudy
10:40 AM 93.2 °F 97.7 °F 68.0 °F 44% 29.71 in 3.7 mi West 17.3 mph 28.8 mph N/A   Mostly Cloudy
11:10 AM 95.0 °F 99.5 °F 68.0 °F 41% 29.71 in 3.7 mi West 17.3 mph 28.8 mph N/A   Scattered Clouds
11:30 AM 95 °F - 67 °F 31% 29.70 in 2 mi West 17.3 mph - -   Haze
11:40 AM 95.0 °F 99.5 °F 68.0 °F 41% 29.71 in 3.7 mi West 17.3 mph 28.8 mph N/A   Scattered Clouds
12:10 PM 95.0 °F 98.5 °F 66.2 °F 39% 29.71 in 3.7 mi West 17.3 mph 28.8 mph N/A   Scattered Clouds
12:40 PM 96.8 °F 101.8 °F 68.0 °F 39% 29.68 in 3.7 mi West 17.3 mph 28.8 mph N/A   Scattered Clouds
1:10 PM 96.8 °F 101.8 °F 68.0 °F 39% 29.68 in 3.7 mi WNW 17.3 mph 28.8 mph N/A   Scattered Clouds
1:40 PM 98.6 °F 104.1 °F 68.0 °F 37% 29.68 in 3.7 mi WNW 17.3 mph 28.8 mph N/A   Scattered Clouds
2:10 PM 98.6 °F 104.1 °F 68.0 °F 37% 29.65 in 3.7 mi West 23.0 mph 34.5 mph N/A   Scattered Clouds
2:30 PM 99 °F - 66 °F 25% 29.64 in 2 mi WNW 24.2 mph - -   Haze
2:40 PM 98.6 °F 102.8 °F 66.2 °F 35% 29.65 in 3.7 mi WNW 23.0 mph 34.5 mph N/A   Scattered Clouds
3:10 PM 98.6 °F 102.8 °F 66.2 °F 35% 29.62 in 3.7 mi WNW 23.0 mph 34.5 mph N/A   Scattered Clouds
3:40 PM 98.6 °F 102.8 °F 66.2 °F 35% 29.62 in 3.7 mi West 20.7 mph 34.5 mph N/A   Scattered Clouds
4:10 PM 96.8 °F 101.8 °F 68.0 °F 39% 29.62 in 3.7 mi West 20.7 mph 34.5 mph N/A   Scattered Clouds
4:40 PM 96.8 °F 101.8 °F 68.0 °F 39% 29.62 in 3.7 mi West 17.3 mph 28.8 mph N/A   Scattered Clouds
5:10 PM 95.0 °F 98.5 °F 66.2 °F 39% 29.62 in 3.7 mi West 17.3 mph 28.8 mph N/A   Scattered Clouds
5:30 PM 95 °F - 65 °F 27% 29.63 in 2 mi WNW 16.1 mph - -   Haze
5:40 PM 95.0 °F 97.0 °F 64.4 °F 36% 29.62 in 3.7 mi West 17.3 mph 28.8 mph N/A   Scattered Clouds
6:10 PM 93.2 °F 96.2 °F 66.2 °F 41% 29.65 in 3.7 mi West 17.3 mph 28.8 mph N/A   Scattered Clouds
6:40 PM 93.2 °F 94.9 °F 64.4 °F 38% 29.68 in 3.7 mi West 11.5 mph 23.0 mph N/A   Scattered Clouds
7:10 PM 93.2 °F 96.2 °F 66.2 °F 41% 29.68 in 3.7 mi WNW 11.5 mph 23.0 mph N/A   Scattered Clouds
7:40 PM 91.4 °F 94.0 °F 66.2 °F 43% 29.71 in 3.7 mi West 11.5 mph 23.0 mph N/A   Scattered Clouds
8:10 PM 89.6 °F 92.2 °F 66.2 °F 46% 29.71 in 3.7 mi West 12.7 mph 24.2 mph N/A   Partly Cloudy
8:30 PM 87 °F - 66 °F 40% 29.72 in 2 mi West 15.0 mph - -   Haze
8:40 PM 87.8 °F 91.4 °F 68.0 °F 52% 29.74 in 3.7 mi West 15.0 mph 26.5 mph N/A   Partly Cloudy
9:10 PM 86.0 °F 89.4 °F 68.0 °F 55% 29.74 in 3.7 mi West 16.1 mph 27.6 mph N/A   Partly Cloudy
9:40 PM 86.0 °F 89.4 °F 68.0 °F 55% 29.74 in 3.7 mi West 12.7 mph 24.2 mph N/A   Scattered Clouds
10:10 PM 86.0 °F 89.4 °F 68.0 °F 55% 29.77 in 3.7 mi West 16.1 mph 27.6 mph N/A   Scattered Clouds
10:40 PM 86.0 °F 89.4 °F 68.0 °F 55% 29.77 in 3.7 mi West 17.3 mph 28.8 mph N/A   Mostly Cloudy
11:10 PM 84.2 °F 87.3 °F 68.0 °F 58% 29.77 in 3.7 mi West 16.1 mph 27.6 mph N/A   Mostly Cloudy
11:30 PM 85 °F - 67 °F 46% 29.76 in 2 mi West 19.6 mph - -   Haze
11:40 PM 84.2 °F 87.3 °F 68.0 °F 58% 29.77 in 3.7 mi West 19.6 mph 31.1 mph N/A   Mostly Cloudy